This is the latest recevied weather packets stored in our database for station/object KE5OYL. If no packets are shown the sender has not sent any weather packets the latest 10 day(s).
| Time | Temp. | Humidity | Pressure | Rain* | Wind** | Luminosity | Snow |
|---|---|---|---|---|---|---|---|
| 1788134524 | 98° F | 36% | 760 mmHg | 0 in | - | 53 W/m² | - |
| 1788134223 | 98° F | 36% | 760 mmHg | 0 in | - | 59 W/m² | - |
| 1788133918 | 98° F | 36% | 760 mmHg | 0 in | - | 71 W/m² | - |
| 1788133613 | 98° F | 36% | 760 mmHg | 0 in | - | 92 W/m² | - |
| 1788133309 | 99° F | 35% | 760 mmHg | 0 in | - | 115 W/m² | - |
| 1788133004 | 99° F | 35% | 759.9 mmHg | 0 in | - | 137 W/m² | - |
| 1788132699 | 99° F | 35% | 759.9 mmHg | 0 in | - | 147 W/m² | - |
| 1788132396 | 101° F | 33% | 760 mmHg | 0 in | - | 153 W/m² | - |
| 1788132091 | 100° F | 33% | 760 mmHg | 0 in | - | 160 W/m² | - |
| 1788131787 | 99° F | 34% | 760.1 mmHg | 0 in | - | 183 W/m² | - |
| 1788131486 | 100° F | 34% | 759.9 mmHg | 0 in | - | 222 W/m² | - |
| 1788131182 | 100° F | 33% | 760.1 mmHg | 0 in | - | 240 W/m² | - |
| 1788130882 | 101° F | 32% | 760.1 mmHg | 0 in | - | 244 W/m² | - |
| 1788130577 | 101° F | 31% | 760 mmHg | 0 in | - | 261 W/m² | - |
| 1788130272 | 100° F | 32% | 759.9 mmHg | 0 in | - | 281 W/m² | - |
| 1788129970 | 100° F | 33% | 760 mmHg | 0 in | - | 290 W/m² | - |
| 1788129667 | 101° F | 32% | 760.1 mmHg | 0 in | - | 309 W/m² | - |
| 1788129363 | 100° F | 33% | 760.1 mmHg | 0 in | - | 333 W/m² | - |
| 1788129057 | 100° F | 32% | 760.3 mmHg | 0 in | - | 343 W/m² | - |
| 1788128751 | 101° F | 31% | 760.1 mmHg | 0 in | - | 271 W/m² | - |
| 1788128442 | 101° F | 31% | 760.2 mmHg | 0 in | - | 345 W/m² | - |
| 1788128138 | 101° F | 31% | 760.3 mmHg | 0 in | - | 362 W/m² | - |
| 1788127834 | 101° F | 31% | 760.1 mmHg | 0 in | - | 377 W/m² | - |
| 1788127533 | 100° F | 32% | 760.2 mmHg | 0 in | - | 400 W/m² | - |
| 1788127232 | 101° F | 32% | 760.2 mmHg | 0 in | - | 427 W/m² | - |
* Rain latest hour (hover to see other rain measurements)
** Current wind speed in m/s (hover to see current wind gust speed)